Weather History for Fairfield, IA

Change the Weather History Date:

Wednesday, April 16, 2014

  Actual Average Record
Temperature  
Mean Temperature 46 °F -  
Max Temperature 60 °F 67 °F 87 °F (1977)
Min Temperature 32 °F 43 °F 26 °F (1983)
Degree Days  
Heating Degree Days 19    
Moisture  
Dew Point 27 °F    
Average Humidity 44    
Maximum Humidity 69    
Minimum Humidity 27    
Precipitation  
Precipitation 0.00 in - - ()
Sea Level Pressure  
Sea Level Pressure 29.99 in    
Wind  
Wind Speed 17 mph (SSE)    
Max Wind Speed 33 mph    
Max Gust Speed 44 mph    
Visibility 10 miles    
Events      
Averages and records for this station are not official NWS values.
T = Trace of Precipitation, MM = Missing Value Source: NWS Daily Summary

Daily Weather History Graph

Daily Weather History Graph

Search for Another Location

Airport:

Trip Planner

Search our weather history database for the weather conditions in past years. The results will help you decide how hot, cold, wet, or windy it might be!

Date:

Astronomy

Apr. 16, 2014 Rise Set
Actual Time 6:27 AM CDT 7:48 PM CDT
Civil Twilight 5:58 AM CDT 8:17 PM CDT
Nautical Twilight 5:24 AM CDT 8:52 PM CDT
Astronomical Twilight 4:48 AM CDT 9:28 PM CDT
Moon 9:33 PM CDT (4/16) 7:14 AM CDT (4/16)
Length of Visible Light 14h 19m
Length of Day
13h 21m
Full, 98% of the Moon is Illuminated
Apr 16
Full
Apr 22
Last Quarter
Apr 29
New
May 6
First Quarter
May 14
Full

Hourly Weather History & Observations

Time (CDT) Temp. Windchill Dew Point Humidity Pressure Visibility Wind Dir Wind Speed Gust Speed Precip Events Conditions
12:15 AM 33.8 °F 27.0 °F 23.0 °F 65% 30.08 in 10.0 mi SE 8.1 mph - N/A   Mostly Cloudy
12:35 AM 33.8 °F 26.4 °F 23.0 °F 65% 30.08 in 10.0 mi ESE 9.2 mph - N/A   Overcast
12:55 AM 32.0 °F 24.8 °F 23.0 °F 69% 30.08 in 10.0 mi SE 8.1 mph - N/A   Overcast
1:15 AM 32.0 °F 24.8 °F 23.0 °F 69% 30.08 in 10.0 mi SE 8.1 mph - N/A   Overcast
1:35 AM 33.8 °F 27.0 °F 23.0 °F 65% 30.08 in 10.0 mi SE 8.1 mph - N/A   Mostly Cloudy
1:55 AM 35.6 °F 27.5 °F 23.0 °F 60% 30.08 in 10.0 mi SE 11.5 mph - N/A   Partly Cloudy
2:15 AM 35.6 °F 27.5 °F 23.0 °F 60% 30.07 in 10.0 mi SE 11.5 mph - N/A   Clear
2:35 AM 35.6 °F 27.5 °F 24.8 °F 65% 30.06 in 10.0 mi SE 11.5 mph - N/A   Mostly Cloudy
2:55 AM 35.6 °F 25.9 °F 24.8 °F 65% 30.05 in 10.0 mi SSE 16.1 mph - N/A   Mostly Cloudy
3:15 AM 35.6 °F 26.2 °F 24.8 °F 65% 30.05 in 10.0 mi SSE 15.0 mph - N/A   Partly Cloudy
3:35 AM 37.4 °F 27.8 °F 24.8 °F 60% 30.05 in 10.0 mi SSE 17.3 mph - N/A   Clear
3:55 AM 35.6 °F 25.9 °F 24.8 °F 65% 30.04 in 10.0 mi SE 16.1 mph - N/A   Clear
4:15 AM 35.6 °F 25.9 °F 24.8 °F 65% 30.04 in 10.0 mi SSE 16.1 mph - N/A   Scattered Clouds
4:35 AM 37.4 °F 28.5 °F 23.0 °F 56% 30.04 in 10.0 mi SSE 15.0 mph - N/A   Overcast
5:15 AM 37.4 °F 28.9 °F 23.0 °F 56% 30.04 in 10.0 mi SSE 13.8 mph 19.6 mph N/A   Overcast
5:35 AM 39.2 °F 30.5 °F 23.0 °F 52% 30.05 in 10.0 mi SSE 16.1 mph 21.9 mph N/A   Overcast
5:55 AM 39.2 °F 30.5 °F 21.2 °F 49% 30.05 in 10.0 mi SSE 16.1 mph 24.2 mph N/A   Mostly Cloudy
6:15 AM 37.4 °F 28.9 °F 23.0 °F 56% 30.05 in 10.0 mi SSE 13.8 mph - N/A   Partly Cloudy
6:35 AM 37.4 °F 29.8 °F 23.0 °F 56% 30.05 in 10.0 mi SSE 11.5 mph - N/A   Clear
6:55 AM 37.4 °F 28.5 °F 23.0 °F 56% 30.05 in 10.0 mi SSE 15.0 mph - N/A   Clear
7:15 AM 39.2 °F 30.2 °F 23.0 °F 52% 30.05 in 10.0 mi SSE 17.3 mph - N/A   Clear
7:35 AM 39.2 °F 29.6 °F 23.0 °F 52% 30.05 in 10.0 mi SSE 19.6 mph 26.5 mph N/A   Clear
7:55 AM 41.0 °F 31.4 °F 23.0 °F 49% 30.05 in 10.0 mi SSE 21.9 mph - N/A   Clear
8:15 AM 41.0 °F 31.9 °F 23.0 °F 49% 30.05 in 10.0 mi SSE 19.6 mph 27.6 mph N/A   Clear
8:35 AM 42.8 °F 34.3 °F 24.8 °F 49% 30.05 in 10.0 mi SSE 19.6 mph 26.5 mph N/A   Clear
8:55 AM 44.6 °F 35.9 °F 24.8 °F 46% 30.04 in 10.0 mi SSE 23.0 mph 31.1 mph N/A   Clear
9:15 AM 44.6 °F 36.4 °F 24.8 °F 46% 30.04 in 10.0 mi South 20.7 mph 29.9 mph N/A   Clear
9:35 AM 46.4 °F 38.5 °F 26.6 °F 46% 30.04 in 10.0 mi SSE 21.9 mph 31.1 mph N/A   Clear
9:55 AM 48.2 °F - 28.4 °F 46% 30.04 in 10.0 mi South 24.2 mph - N/A   Clear
10:15 AM 48.2 °F - 28.4 °F 46% 30.04 in 10.0 mi SSE 24.2 mph 29.9 mph N/A   Clear
10:35 AM 50.0 °F - 28.4 °F 43% 30.04 in 10.0 mi South 20.7 mph 33.4 mph N/A   Clear
10:55 AM 51.8 °F - 30.2 °F 44% 30.03 in 10.0 mi South 20.7 mph 32.2 mph N/A   Clear
11:15 AM 53.6 °F - 30.2 °F 41% 30.02 in 10.0 mi SSE 25.3 mph 35.7 mph N/A   Clear
11:35 AM 53.6 °F - 30.2 °F 41% 30.02 in 10.0 mi South 28.8 mph - N/A   Clear
11:55 AM 55.4 °F - 30.2 °F 38% 30.01 in 10.0 mi South 23.0 mph 34.5 mph N/A   Clear
12:15 PM 55.4 °F - 30.2 °F 38% 30.00 in 10.0 mi SSE 27.6 mph 39.1 mph N/A   Clear
12:35 PM 57.2 °F - 30.2 °F 36% 29.98 in 10.0 mi South 29.9 mph 38.0 mph N/A   Clear
1:15 PM 59.0 °F - 30.2 °F 34% 29.96 in 10.0 mi SSE 29.9 mph 40.3 mph N/A   Clear
1:35 PM 59.0 °F - 30.2 °F 34% 29.96 in 10.0 mi SSE 27.6 mph 41.4 mph N/A   Clear
1:55 PM 59.0 °F - 30.2 °F 34% 29.95 in 10.0 mi South 32.2 mph 40.3 mph N/A   Clear
2:15 PM 59.0 °F - 30.2 °F 34% 29.95 in 10.0 mi South 27.6 mph 35.7 mph N/A   Clear
2:35 PM 59.0 °F - 30.2 °F 34% 29.93 in 10.0 mi SSE 29.9 mph 35.7 mph N/A   Clear
2:55 PM 60.8 °F - 30.2 °F 31% 29.92 in 10.0 mi SSE 28.8 mph 39.1 mph N/A   Clear
3:15 PM 60.8 °F - 28.4 °F 29% 29.91 in 10.0 mi South 33.4 mph 41.4 mph N/A   Clear
3:35 PM 59.0 °F - 28.4 °F 31% 29.91 in 10.0 mi South 32.2 mph 43.7 mph N/A   Clear
3:55 PM 60.8 °F - 28.4 °F 29% 29.89 in 10.0 mi SSE 25.3 mph 41.4 mph N/A   Clear
4:15 PM 60.8 °F - 28.4 °F 29% 29.88 in 10.0 mi SSE 29.9 mph 41.4 mph N/A   Clear
4:35 PM 60.8 °F - 26.6 °F 27% 29.88 in 10.0 mi South 27.6 mph 36.8 mph N/A   Partly Cloudy
4:55 PM 59.0 °F - 26.6 °F 29% 29.88 in 10.0 mi SSE 26.5 mph 38.0 mph N/A   Partly Cloudy
5:15 PM 60.8 °F - 28.4 °F 29% 29.87 in 10.0 mi SSE 31.1 mph 38.0 mph N/A   Clear
5:35 PM 60.8 °F - 28.4 °F 29% 29.89 in 10.0 mi South 26.5 mph 34.5 mph N/A   Clear
5:55 PM 60.8 °F - 28.4 °F 29% 29.90 in 10.0 mi South 25.3 mph 32.2 mph N/A   Clear
6:15 PM 59.0 °F - 26.6 °F 29% 29.91 in 10.0 mi South 23.0 mph 33.4 mph N/A   Scattered Clouds
6:35 PM 59.0 °F - 26.6 °F 29% 29.91 in 10.0 mi South 19.6 mph 29.9 mph N/A   Overcast
6:55 PM 59.0 °F - 28.4 °F 31% 29.91 in 10.0 mi South 17.3 mph 26.5 mph N/A   Overcast
7:15 PM 59.0 °F - 28.4 °F 31% 29.91 in 10.0 mi South 16.1 mph - N/A   Overcast
7:35 PM 59.0 °F - 28.4 °F 31% 29.91 in 10.0 mi South 17.3 mph 24.2 mph N/A   Overcast
7:55 PM 57.2 °F - 28.4 °F 33% 29.91 in 10.0 mi South 16.1 mph 24.2 mph N/A   Scattered Clouds
8:15 PM 55.4 °F - 28.4 °F 36% 29.91 in 10.0 mi SSE 18.4 mph - N/A   Clear
8:35 PM 55.4 °F - 26.6 °F 33% 29.92 in 10.0 mi SSE 16.1 mph 23.0 mph N/A   Clear
8:55 PM 55.4 °F - 26.6 °F 33% 29.92 in 10.0 mi SSE 16.1 mph - N/A   Clear
9:15 PM 53.6 °F - 28.4 °F 38% 29.93 in 10.0 mi SSE 16.1 mph 21.9 mph N/A   Clear
9:35 PM 53.6 °F - 28.4 °F 38% 29.93 in 10.0 mi SSE 18.4 mph 24.2 mph N/A   Clear
9:55 PM 51.8 °F - 28.4 °F 41% 29.93 in 10.0 mi SSE 18.4 mph - N/A   Clear
10:15 PM 51.8 °F - 28.4 °F 41% 29.93 in 10.0 mi SSE 18.4 mph 24.2 mph N/A   Mostly Cloudy
10:35 PM 51.8 °F - 28.4 °F 41% 29.94 in 10.0 mi SSE 16.1 mph 23.0 mph N/A   Scattered Clouds
10:55 PM 50.0 °F - 28.4 °F 43% 29.94 in 10.0 mi SSE 13.8 mph 20.7 mph N/A   Partly Cloudy
11:15 PM 50.0 °F - 26.6 °F 40% 29.95 in 10.0 mi South 17.3 mph - N/A   Partly Cloudy
11:35 PM 51.8 °F - 26.6 °F 38% 29.93 in 10.0 mi SSE 21.9 mph 28.8 mph N/A   Scattered Clouds
11:55 PM 51.8 °F - 26.6 °F 38% 29.93 in 10.0 mi South 23.0 mph 28.8 mph N/A   Partly Cloudy